AG3T Weather Reports


Display with metric or nautical units.
time (UTC)temp
F
wind
direction
speed
MPH
gust
MPH
rain 1hr
in
rain 24hr
in
rain mn
in
humidity
%
barometer
mb
20260504185000 73 360 1.0 6.0 0.00 0.00 0.00 46 1010.7
20260504184000 73 360 3.0 9.0 0.00 0.00 0.00 44 1011.0
20260504183500 73 360 1.0 9.0 0.00 0.00 0.00 40 1011.0
20260504183000 73 360 1.0 11.0 0.00 0.00 0.00 46 1011.0
20260504182459 73 360 1.0 11.0 0.00 0.00 0.00 46 1011.2
20260504182000 73 360 0.0 4.0 0.00 0.00 0.00 46 1011.2
20260504181000 72 360 0.0 4.0 0.00 0.00 0.00 45 1011.2
20260504180459 72 360 0.0 5.0 0.00 0.00 0.00 41 1011.4
20260504180002 72 360 1.0 5.0 0.00 0.00 0.00 44 1011.4
20260504174959 73 360 0.0 4.0 0.00 0.00 0.00 41 1011.7
20260504174000 73 360 1.0 5.0 0.00 0.00 0.00 44 1011.8
20260504173500 73 360 1.0 4.0 0.00 0.00 0.00 46 1011.8
20260504173000 73 360 2.0 4.0 0.00 0.00 0.00 49 1011.9
20260504172459 73 360 1.0 3.0 0.00 0.00 0.00 45 1012.0
20260504172000 73 360 0.0 3.0 0.00 0.00 0.00 44 1012.1
20260504171459 72 360 0.0 5.0 0.00 0.00 0.00 43 1012.1
20260504171000 72 360 0.0 5.0 0.00 0.00 0.00 43 1012.4
20260504170500 72 360 1.0 5.0 0.00 0.00 0.00 46 1012.3
20260504150959 69 360 0.0 6.0 0.00 0.00 0.00 44 1013.6
20260504150459 69 360 0.0 5.0 0.00 0.00 0.00 46 1013.6
20260504141001 65 360 0.0 2.0 0.00 0.00 0.00 49 1013.9
20260504130459 61 360 1.0 3.0 0.00 0.00 0.00 51 1014.1
20260504110459 44 360 0.0 0.0 0.00 0.00 0.00 83 1014.6
20260504081458 0 0.0 0.0 0.00 0.00 0.00 1014.7
20260504080958 0 0.0 0.0 0.00 0.00 0.00 1014.7
20260504050458 42 360 0.0 0.0 0.00 0.00 0.00 76 1014.6
20260504050000 42 360 0.0 0.0 0.00 0.00 0.00 76 1014.6
20260504044500 42 360 0.0 0.0 0.00 0.00 0.00 76 1014.5
20260504043500 43 360 0.0 0.0 0.00 0.00 0.00 75 1014.6
20260504043001 43 360 0.0 0.0 0.00 0.00 0.00 76 1014.5
20260504042000 43 360 0.0 0.0 0.00 0.00 0.00 74 1014.5
20260504041500 43 360 0.0 0.0 0.00 0.00 0.00 76 1014.4
20260504041001 43 360 0.0 0.0 0.00 0.00 0.00 76 1014.4
20260504040500 43 360 0.0 0.0 0.00 0.00 0.00 76 1014.5
20260504040004 43 360 0.0 0.0 0.00 0.00 0.00 77 1014.4
20260504035500 43 360 0.0 0.0 0.00 0.00 0.00 76 1014.3
20260504035001 44 360 0.0 0.0 0.00 0.00 0.00 75 1014.3
20260504034001 44 360 0.0 0.0 0.00 0.00 0.00 74 1014.2
20260504033500 44 360 0.0 0.0 0.00 0.00 0.00 74 1014.1
20260504033001 44 360 0.0 0.0 0.00 0.00 0.00 74 1014.0
20260504032500 44 360 0.0 0.0 0.00 0.00 0.00 74 1014.0
20260504032001 44 360 0.0 0.0 0.00 0.00 0.00 72 1013.9
20260504031500 45 360 0.0 0.0 0.00 0.00 0.00 73 1014.0
20260504031000 45 360 0.0 0.0 0.00 0.00 0.00 72 1013.9
20260504030007 45 360 0.0 0.0 0.00 0.00 0.00 73 1013.9
20260504025500 45 360 0.0 0.0 0.00 0.00 0.00 71 1013.9
20260504025000 45 360 0.0 0.0 0.00 0.00 0.00 72 1014.0
20260504024500 45 360 0.0 0.0 0.00 0.00 0.00 70 1014.0
20260504024001 45 360 0.0 0.0 0.00 0.00 0.00 72 1013.9
20260504023500 45 360 0.0 0.0 0.00 0.00 0.00 72 1014.1
20260504022000 46 360 0.0 0.0 0.00 0.00 0.00 72 1014.1
20260504021001 46 360 0.0 0.0 0.00 0.00 0.00 69 1014.1
20260504020500 46 360 0.0 0.0 0.00 0.00 0.00 69 1014.0
20260504015001 47 360 0.0 0.0 0.00 0.00 0.00 69 1013.9
20260504014500 47 360 0.0 0.0 0.00 0.00 0.00 67 1013.9
20260504014002 48 360 0.0 0.0 0.00 0.00 0.00 66 1013.9
20260504013500 48 360 0.0 0.0 0.00 0.00 0.00 66 1013.9
20260504013001 48 360 0.0 0.0 0.00 0.00 0.00 66 1013.8
20260504012500 49 360 0.0 0.0 0.00 0.00 0.00 65 1013.8
20260504012001 49 360 0.0 0.0 0.00 0.00 0.00 65 1013.7
20260504011500 49 360 0.0 0.0 0.00 0.00 0.00 65 1013.6
20260504010501 50 360 0.0 0.0 0.00 0.00 0.00 64 1013.6
20260504010004 50 360 0.0 0.0 0.00 0.00 0.00 60 1013.7
20260504005500 51 360 0.0 0.0 0.00 0.00 0.00 60 1013.6
20260504005001 51 360 0.0 0.0 0.00 0.00 0.00 60 1013.5
20260504004500 52 360 0.0 0.0 0.00 0.00 0.00 59 1013.5
20260504004000 52 360 0.0 0.0 0.00 0.00 0.00 58 1013.4
20260504003500 52 360 0.0 0.0 0.00 0.00 0.00 55 1013.3
20260504002500 53 360 0.0 0.0 0.00 0.00 0.00 55 1013.0
20260504002001 53 360 0.0 0.0 0.00 0.00 0.00 53 1013.0
20260504001500 54 360 0.0 2.0 0.00 0.00 0.00 50 1012.9
20260504001001 54 360 0.0 2.0 0.00 0.00 0.00 49 1013.0
20260504000500 54 360 0.0 0.0 0.00 0.00 0.00 48 1012.8
20260504000003 55 360 0.0 2.0 0.00 0.00 0.00 48 1012.9
20260503234501 55 360 0.0 2.0 0.00 0.00 0.00 47 1012.8
20260503233500 56 360 0.0 1.0 0.00 0.00 0.00 46 1012.8
20260503233001 56 360 0.0 2.0 0.00 0.00 0.00 46 1012.7
20260503232001 57 360 0.0 2.0 0.00 0.00 0.00 46 1012.8
20260503231500 57 360 0.0 4.0 0.00 0.00 0.00 44 1012.7
20260503230500 58 360 0.0 2.0 0.00 0.00 0.00 43 1012.6
20260503230004 58 360 0.0 4.0 0.00 0.00 0.00 43 1012.6
20260503225500 58 360 0.0 4.0 0.00 0.00 0.00 43 1012.7
20260503225001 59 360 0.0 3.0 0.00 0.00 0.00 44 1012.6
20260503224500 59 360 0.0 3.0 0.00 0.00 0.00 43 1012.6
20260503224001 59 360 0.0 2.0 0.00 0.00 0.00 42 1012.6
20260503223500 59 360 0.0 4.0 0.00 0.00 0.00 44 1012.5
20260503222500 59 360 0.0 3.0 0.00 0.00 0.00 41 1012.7
20260503222001 59 360 0.0 6.0 0.00 0.00 0.00 44 1012.5
20260503221001 60 360 2.0 6.0 0.00 0.00 0.00 40 1012.6
20260503220500 59 360 1.0 5.0 0.00 0.00 0.00 40 1012.6
20260503220005 60 360 0.0 3.0 0.00 0.00 0.00 41 1012.6
20260503215500 60 360 1.0 5.0 0.00 0.00 0.00 42 1012.6
20260503215001 60 360 0.0 5.0 0.00 0.00 0.00 41 1012.6
20260503214500 60 360 0.0 5.0 0.00 0.00 0.00 46 1012.5
20260503214001 60 360 0.0 4.0 0.00 0.00 0.00 43 1012.4
20260503213500 59 360 2.0 4.0 0.00 0.00 0.00 43 1012.5
20260503213000 59 360 0.0 5.0 0.00 0.00 0.00 41 1012.5
20260503212501 60 360 1.0 5.0 0.00 0.00 0.00 41 1012.5
20260503212000 59 360 0.0 5.0 0.00 0.00 0.00 44 1012.4
20260503211000 60 360 0.0 5.0 0.00 0.00 0.00 42 1012.5
20260503210500 60 360 2.0 9.0 0.00 0.00 0.00 41 1012.5
20260503210005 60 360 2.0 9.0 0.00 0.00 0.00 41 1012.6
20260503205500 59 360 2.0 4.0 0.00 0.00 0.00 40 1012.3
20260503205001 59 360 1.0 4.0 0.00 0.00 0.00 40 1012.4
20260503203000 59 360 0.0 5.0 0.00 0.00 0.00 42 1012.5
20260503202500 59 360 0.0 4.0 0.00 0.00 0.00 40 1012.4
20260503201500 59 360 1.0 5.0 0.00 0.00 0.00 37 1012.6
20260503201000 59 360 0.0 6.0 0.00 0.00 0.00 42 1012.6
20260503200500 59 360 3.0 6.0 0.00 0.00 0.00 41 1012.6
20260503200004 59 360 1.0 6.0 0.00 0.00 0.00 41 1012.7
20260503194500 59 360 1.0 6.0 0.00 0.00 0.00 39 1012.8
20260503193500 59 360 4.0 5.0 0.00 0.00 0.00 38 1013.1
20260503193000 59 360 1.0 11.0 0.00 0.00 0.00 42 1013.0
20260503192500 58 360 2.0 11.0 0.00 0.00 0.00 43 1013.0
20260503192000 58 360 2.0 10.0 0.00 0.00 0.00 39 1013.1
20260503191001 58 360 1.0 6.0 0.00 0.00 0.00 45 1013.2
20260503190500 58 360 1.0 6.0 0.00 0.00 0.00 38 1013.4
20260503190002 58 360 1.0 4.0 0.00 0.00 0.00 46 1013.4
20260503185458 58 360 1.0 9.0 0.00 0.00 0.00 41 1013.3